Tracking 19720 objects as of 27-Jun-2019
HD Live streaming from Space Station
objects crossing your sky now

PICOSAT 6

Track PICOSAT 6 now!
10-day predictions
PICOSAT 6 is classified as:


NORAD ID: 26094
Int'l Code: 2000-004M
Perigee: 733.7 km
Apogee: 781.0 km
Inclination: 100.2 °
Period: 99.8 minutes
Semi major axis: 7128 km
RCS: 0.0137 m2 (small)
Launch date: January 27, 2000
Source: United States (US)
Launch site: AIR FORCE WESTERN TEST RANGE (AFWTR)
aabbcc
Your satellite tracking list
Your tracking list is empty




NASA's NSSDC Master Catalog

Two Line Element Set (TLE):
1 26094U 00004M   19176.78429049 +.00000061 +00000-0 +36526-4 0  9995
2 26094 100.2215 014.1453 0033190 258.8550 100.8901 14.42515445017430
Source of the keplerian elements: AFSPC